Overview Statistics Trail Chart Weather Telemetry Raw packets
 

This is the latest recevied weather packets stored in our database for station/object KA1BMF-13. If no packets are shown the sender has not sent any weather packets the latest 10 day(s).

<< 31 32 33 34 35 36 37 >>
Time Temp. Humidity Pressure Rain* Wind** Luminosity Snow
1788041716 21.11° C 66% 1020.9 hPa 0 mm - 28 W/m² -
1788041119 21.11° C 65% 1020.8 hPa 0 mm - 30 W/m² -
1788040520 21.67° C 63% 1020.9 hPa 0 mm - 32 W/m² -
1788039920 21.67° C 63% 1021 hPa 0 mm - 33 W/m² -
1788039319 22.22° C 59% 1021.2 hPa 0 mm - 35 W/m² -
1788038717 22.78° C 56% 1021.3 hPa 0 mm - 37 W/m² -
1788038117 22.78° C 57% 1021.5 hPa 0 mm - 37 W/m² -
1788037520 23.33° C 50% 1021.5 hPa 0 mm - 39 W/m² -
1788036920 23.33° C 51% 1021.5 hPa 0 mm - 41 W/m² -
1788036317 23.33° C 57% 1021.6 hPa 0 mm - 43 W/m² -
1788035717 23.89° C 55% 1021.6 hPa 0 mm - 45 W/m² -
1788035118 23.89° C 51% 1021.6 hPa 0 mm - 47 W/m² -
1788034518 24.44° C 50% 1021.6 hPa 0 mm - 454 W/m² -
1788033918 24.44° C 52% 1021.5 hPa 0 mm - 525 W/m² -
1788033318 24.44° C 48% 1021.6 hPa 0 mm - 554 W/m² -
1788032719 25° C 45% 1021.7 hPa 0 mm - 582 W/m² -
1788032119 25.56° C 46% 1021.8 hPa 0 mm - 607 W/m² -
1788031518 25.56° C 44% 1021.8 hPa 0 mm - 634 W/m² -
1788030916 25.56° C 42% 1021.9 hPa 0 mm - 657 W/m² -
1788030319 25.56° C 44% 1022 hPa 0 mm - 681 W/m² -
1788029719 25° C 44% 1022.2 hPa 0 mm - 698 W/m² -
1788029119 24.44° C 45% 1022.2 hPa 0 mm - 722 W/m² -
1788028517 25° C 46% 1022.3 hPa 0 mm - 734 W/m² -
1788027928 24.44° C 46% 1022.4 hPa 0 mm - 753 W/m² -
1788027328 24.44° C 44% 1022.5 hPa 0 mm - 766 W/m² -

* Rain latest hour (hover to see other rain measurements)
** Current wind speed in m/s (hover to see current wind gust speed)